[[{"header":{"parameterUnit":"m.s-1","parameterCategory":1,"la1":30.2991,"la2":30.254,"lo1":-89.0895,"lo2":-89.0444,"dy":0.0017,"dx":0.0017,"nx":28,"ny":28,"refTime":"2024-10-19T21:00:00:Z","depth":0,"parameterNumber":2,"parameterNumberName":"U-component_of_WINDS"},"data":[0,0,0,0,0,0,0,0,0,0,0,0,0,0,0,0,0,0,0,0,0,0,0,0,0,0,0,0,0,0,0,0,0,0,0,0,0,0,0,0,0,0,0,0,0,0,0,0,0,0,0,0,0,0,0,0,0,0,-2.0394,-2.0394,0,-2.0396,-2.0396,-2.0396,-2.0288,-2.0285,-2.0282,-2.0279,-2.0286,-2.0289,-2.0292,0,0,0,0,0,0,0,0,0,0,0,0,0,-2.03,-2.0302,-2.0394,-2.0394,-2.0394,-2.0396,-2.0396,-2.0396,-2.0288,-2.0285,-2.0281,-2.0278,-2.0285,-2.0289,-2.0292,0,0,0,0,0,0,0,0,0,0,0,0,0,-2.0326,-2.0303,-2.0394,-2.034,-2.0336,-2.0396,-2.0396,-2.0396,-2.0289,-2.0285,-2.0281,-2.0277,-2.0284,-2.0288,-2.0292,-2.0405,0,0,-2.0306,-2.0307,0,0,0,0,0,0,0,0,-2.0324,-2.0329,-2.0348,-2.0344,-2.0339,-2.0337,-2.0365,-2.0399,-2.029,-2.0307,-2.0279,-2.0274,-2.0307,-2.0309,-2.0319,-2.0405,-2.0406,-2.0306,-2.0309,-2.031,-2.0312,0,0,0,0,0,0,0,-2.0323,-2.0328,-2.0395,-2.0349,-2.0343,-2.0317,-2.0316,-2.0371,-2.0331,-2.0305,-2.0297,-2.0299,-2.0304,-2.0315,-2.0318,-2.0406,-2.0306,-2.031,-2.0312,-2.0314,-2.0585,-2.0589,0,0,0,0,0,0,-2.0328,-2.0328,-2.0395,-2.0395,-2.0321,-2.0322,-2.0321,-2.0342,-2.033,-2.0324,-2.0302,-2.0294,-2.031,-2.0313,-2.0318,-2.045,-2.031,-2.0314,-2.0317,-2.058,-2.0586,-2.0591,0,0,0,0,0,0,-2.0326,-2.0335,-2.0394,-2.0359,-2.0365,-2.0329,-2.0353,-2.0344,-2.0356,-2.0328,-2.0321,-2.0322,-2.0307,-2.0312,-2.0384,-2.0449,-2.0316,-2.032,-2.0575,-2.0582,-2.0588,-2.0716,0,0,0,0,0,0,-2.0324,-2.0335,-2.0377,-2.0361,-2.0367,-2.046,-2.0357,-2.0348,-2.0363,-2.0352,-2.0344,-2.0339,-2.0304,-2.0378,-2.0388,-2.0453,-2.0324,-2.0569,-2.0578,-2.0586,-2.0706,-2.0726,-2.0744,0,0,0,0,0,-2.0321,-2.0414,-2.038,-2.0388,-2.0419,-2.0464,-2.0468,-2.0424,-2.0369,-2.0411,-2.0393,-2.0339,-2.0439,-2.0386,-2.0397,-2.0464,-2.0565,-2.0575,-2.0585,-2.0697,-2.0722,-2.0743,0,0,0,0,0,0,-2.0441,-2.0411,-2.0373,-2.0463,-2.0466,-2.0446,-2.0498,-2.0452,-2.0473,-2.0462,-2.0408,-2.0407,-2.0488,-2.0482,-2.0424,-2.0572,-2.0492,-2.0505,-2.0574,-2.0597,-2.0616,-2.0618,-2.0327,0,0,0,0,0,-2.0477,-2.0515,-2.0487,-2.0569,-2.0573,-2.0535,-2.0554,-2.0519,-2.0522,-2.0523,-2.051,-2.0516,-2.0549,-2.0572,-2.06,-2.0702,-2.07,-2.0753,-2.0772,-2.0788,-2.0801,-2.0856,-2.088,-2.0625,-2.0625,-2.0625,0,0,-2.0554,-2.0542,-2.057,-2.0593,-2.0592,-2.0634,-2.0538,-2.0586,-2.0618,-2.0531,-2.0599,-2.0589,-2.0591,-2.0679,-2.0717,-2.0677,-2.087,-2.0801,-2.0814,-2.0819,-2.0869,-2.0893,-2.0915,-2.0632,-2.0631,-2.063,0,0,-2.0716,-2.071,-2.0778,-2.0778,-2.0777,-2.0751,-2.0767,-2.0753,-2.0743,-2.0808,-2.0745,-2.0781,-2.0838,-2.0842,-2.0853,-2.1013,-2.0965,-2.1023,-2.1125,-2.1179,-2.1199,-2.1216,-2.1276,-2.1298,-2.1036,-2.1036,-2.1036,0,-2.0813,-2.0873,-2.082,-2.0872,-2.0885,-2.0805,-2.0875,-2.0878,-2.0887,-2.0898,-2.0851,-2.0921,-2.0917,-2.1005,-2.1044,-2.1054,-2.1072,-2.1027,-2.12,-2.1217,-2.1233,-2.1289,-2.1312,-2.1043,-2.1043,-2.1042,-2.1041,0,-2.0992,-2.1035,-2.109,-2.1099,-2.1117,-2.1178,-2.1135,-2.116,-2.1122,-2.1101,-2.117,-2.1161,-2.1187,-2.1204,-2.1169,-2.1288,-2.1263,-2.1209,-2.1129,-2.1265,-2.1318,-2.1339,-2.1054,-2.1051,-2.1049,-2.1047,0,0,-2.1236,-2.1211,-2.1233,-2.1236,-2.1227,-2.1259,-2.1316,-2.1339,-2.1362,-2.1369,-2.1417,-2.1466,-2.1415,-2.1427,-2.1391,-2.1437,-2.1568,-2.1377,-2.1377,-2.1416,-2.17,-2.1744,-2.177,-2.1533,-2.1537,-2.154,-2.1701,0,-2.1395,-2.1491,-2.1443,-2.1545,-2.1584,-2.1507,-2.1556,-2.1557,-2.1538,-2.1569,-2.1547,-2.1584,-2.1513,-2.1519,-2.1562,-2.1543,-2.1625,-2.153,-2.158,-2.1583,-2.1587,-2.1796,-2.1843,-2.1996,-2.1721,-2.1724,-2.1726,0,-2.1596,-2.161,-2.1716,-2.1698,-2.1713,-2.1758,-2.1775,-2.1805,-2.1803,-2.1786,-2.1797,-2.175,-2.1805,-2.1722,-2.1799,-2.1735,-2.1752,-2.1746,-2.175,-2.1757,-2.1666,-2.1813,-2.2043,-2.2067,-2.1758,-2.1755,-2.1753,0,-2.1766,-2.1811,-2.188,-2.1885,-2.1866,-2.19,-2.1893,-2.1887,-2.1904,-2.1918,-2.1929,-2.195,-2.1963,-2.1981,-2.1941,-2.1883,-2.2024,-2.1937,-2.2013,-2.2015,-2.2051,-2.205,-2.2291,-2.2055,-2.2054,-2.2054,-2.2054,0,-2.1952,-2.2021,-2.1957,-2.2,-2.2074,-2.2018,-2.2093,-2.2079,-2.2073,-2.2113,-2.2046,-2.2085,-2.2028,-2.2061,-2.203,-2.2099,-2.2104,-2.2094,-2.2086,-2.2102,-2.2105,-2.2116,-2.2107,-2.206,-2.2059,-2.2058,-2.2056,0,-2.2158,-2.2117,-2.2188,-2.2163,-2.2158,-2.2214,-2.2193,-2.2232,-2.2206,-2.2257,-2.2266,-2.2227,-2.2262,-2.2222,-2.2255,-2.2234,-2.2329,-2.2303,-2.233,-2.2324,-2.2404,-2.2399,-2.2665,-2.2698,-2.2437,-2.244,-2.2442,0,-2.2282,-2.2333,-2.2312,-2.2332,-2.233,-2.2364,-2.238,-2.2325,-2.2345,-2.2346,-2.2386,-2.2414,-2.2436,-2.2496,-2.2472,-2.2496,-2.2473,-2.2564,-2.2477,-2.2492,-2.2479,-2.2478,-2.2484,-2.2584,-2.2587,-2.259,-2.2592,0,-2.2507,-2.2484,-2.2508,-2.2526,-2.2546,-2.2557,-2.2564,-2.2585,-2.2528,-2.2553,-2.2588,-2.2604,-2.2636,-2.2667,-2.2684,-2.2678,-2.2628,-2.2618,-2.2638,-2.2659,-2.2674,-2.267,-2.2383,-2.2614,-2.2612,-2.261,-2.2609,-2.2608,-2.2678,-2.272,-2.2711,-2.2741,-2.2739,-2.2746,-2.2782,-2.2759,-2.2786,-2.2808,-2.2773,-2.2817,-2.2813,-2.283,-2.283,-2.2864,-2.2826,-2.2853,-2.2861,-2.287,-2.2884,-2.2664,-2.2867,-2.2866,-2.2865,-2.2865,-2.2864,0,-2.2903,-2.2893,-2.292,-2.293,-2.2953,-2.2898,-2.2902,-2.2926,-2.2965,-2.2964,-2.2985,-2.3025,-2.3054,-2.303,-2.3054,-2.3086,-2.3063,-2.3094,-2.3094,-2.3094,-2.2915,-2.2898,-2.3113,-2.3113,-2.3113,-2.3112,-2.3112,-2.3112,-2.3023,-2.3091,-2.3066,-2.3132,-2.3121,-2.3163,-2.317,-2.3176,-2.3175,-2.3222,-2.3245,-2.3228,-2.3218,-2.324,-2.3264,-2.3256,-2.327,-2.3311,-2.3296,-2.3131,-2.3107,-2.3083,-2.3067,-2.3314,-2.3314,-2.3472,-2.3473,-2.3475]},{"header":{"parameterUnit":"m.s-1","parameterCategory":1,"la1":30.2991,"la2":30.254,"lo1":-89.0895,"lo2":-89.0444,"dy":0.0017,"dx":0.0017,"nx":28,"ny":28,"refTime":"2024-10-19T21:00:00:Z","depth":0,"parameterNumber":3,"parameterNumberName":"V-component_of_WINDS"},"data":[0,0,0,0,0,0,0,0,0,0,0,0,0,0,0,0,0,0,0,0,0,0,0,0,0,0,0,0,0,0,0,0,0,0,0,0,0,0,0,0,0,0,0,0,0,0,0,0,0,0,0,0,0,0,0,0,0,0,-3.3355,-3.3356,0,-3.3427,-3.3428,-3.3429,-3.3388,-3.3386,-3.3384,-3.3382,-3.3451,-3.3455,-3.3459,0,0,0,0,0,0,0,0,0,0,0,0,0,-3.3176,-3.318,-3.3355,-3.3356,-3.3357,-3.3427,-3.3428,-3.3429,-3.3388,-3.3386,-3.3383,-3.3381,-3.345,-3.3454,-3.3459,0,0,0,0,0,0,0,0,0,0,0,0,0,-3.3252,-3.3181,-3.3355,-3.3345,-3.3345,-3.3427,-3.3428,-3.3429,-3.3389,-3.3386,-3.3383,-3.338,-3.3449,-3.3454,-3.346,-3.3554,0,0,-3.3477,-3.3479,0,0,0,0,0,0,0,0,-3.3247,-3.3258,-3.3345,-3.3346,-3.3346,-3.3396,-3.3391,-3.3471,-3.3389,-3.3372,-3.3382,-3.3378,-3.3435,-3.3441,-3.3461,-3.3558,-3.3561,-3.3477,-3.348,-3.3483,-3.3484,0,0,0,0,0,0,0,-3.3242,-3.3255,-3.3383,-3.3347,-3.3347,-3.3335,-3.3343,-3.3406,-3.3419,-3.3373,-3.337,-3.338,-3.3434,-3.3456,-3.3463,-3.3562,-3.3477,-3.3482,-3.3485,-3.3488,-3.3739,-3.3742,0,0,0,0,0,0,-3.3238,-3.3251,-3.3381,-3.3386,-3.3288,-3.3341,-3.3349,-3.3382,-3.3418,-3.3421,-3.3382,-3.3378,-3.3448,-3.3456,-3.3465,-3.3579,-3.3483,-3.3488,-3.3491,-3.3736,-3.374,-3.3744,0,0,0,0,0,0,-3.3235,-3.325,-3.3378,-3.3318,-3.3333,-3.3347,-3.3385,-3.3385,-3.3407,-3.3425,-3.3427,-3.3402,-3.3446,-3.3457,-3.3533,-3.358,-3.3491,-3.3496,-3.3732,-3.3737,-3.3742,-3.3807,0,0,0,0,0,0,-3.323,-3.3249,-3.3287,-3.3319,-3.3336,-3.3446,-3.3388,-3.3389,-3.3418,-3.3412,-3.3445,-3.3447,-3.3445,-3.3525,-3.3538,-3.3587,-3.35,-3.3728,-3.3734,-3.374,-3.38,-3.3813,-3.3824,0,0,0,0,0,-3.3224,-3.3301,-3.3289,-3.3305,-3.3383,-3.3449,-3.3459,-3.3456,-3.3422,-3.3459,-3.347,-3.3446,-3.3573,-3.3533,-3.3548,-3.3598,-3.3725,-3.3732,-3.374,-3.3795,-3.3811,-3.3824,0,0,0,0,0,0,-3.3272,-3.3305,-3.3292,-3.3382,-3.3413,-3.3442,-3.3488,-3.3472,-3.3513,-3.3506,-3.3499,-3.3506,-3.3585,-3.3599,-3.3554,-3.3692,-3.3643,-3.3654,-3.368,-3.3695,-3.3707,-3.3702,-3.3505,0,0,0,0,0,-3.3293,-3.3345,-3.3371,-3.3448,-3.3464,-3.3474,-3.3502,-3.3497,-3.3529,-3.3541,-3.3558,-3.3589,-3.3635,-3.3666,-3.371,-3.3802,-3.3808,-3.3844,-3.3856,-3.3866,-3.3875,-3.3925,-3.3941,-3.3768,-3.3768,-3.3768,0,0,-3.3337,-3.3362,-3.3395,-3.3458,-3.3482,-3.3535,-3.3485,-3.3543,-3.3582,-3.3549,-3.3623,-3.3636,-3.3669,-3.3754,-3.3792,-3.3768,-3.3925,-3.3876,-3.3883,-3.3887,-3.3935,-3.3951,-3.3966,-3.3773,-3.3772,-3.3772,0,0,-3.3445,-3.3469,-3.3536,-3.3561,-3.3599,-3.3605,-3.3621,-3.3653,-3.3661,-3.3735,-3.3712,-3.3757,-3.3838,-3.3862,-3.3885,-3.4004,-3.3983,-3.4018,-3.408,-3.4129,-3.4143,-3.4155,-3.4197,-3.4212,-3.4027,-3.4027,-3.4027,0,-3.3494,-3.3575,-3.3572,-3.3633,-3.3661,-3.3636,-3.3703,-3.3727,-3.3776,-3.3796,-3.3769,-3.387,-3.389,-3.3981,-3.401,-3.4029,-3.4047,-3.4014,-3.4141,-3.4153,-3.4165,-3.4205,-3.422,-3.4031,-3.4031,-3.4031,-3.403,0,-3.3634,-3.369,-3.374,-3.379,-3.3824,-3.3887,-3.3893,-3.3927,-3.3919,-3.3928,-3.4003,-3.4027,-3.4075,-3.4096,-3.4089,-3.4186,-3.417,-3.4142,-3.4093,-3.4185,-3.4223,-3.4238,-3.4037,-3.4036,-3.4035,-3.4034,0,0,-3.3773,-3.3822,-3.384,-3.3863,-3.3903,-3.3946,-3.4007,-3.4057,-3.4086,-3.4121,-3.4172,-3.4242,-3.4217,-3.4243,-3.4238,-3.4281,-3.4373,-3.4248,-3.4249,-3.427,-3.4481,-3.4502,-3.452,-3.436,-3.4363,-3.4365,-3.4478,0,-3.3883,-3.3994,-3.3993,-3.4095,-3.4146,-3.4124,-3.4178,-3.4208,-3.4217,-3.4261,-3.4271,-3.4321,-3.4284,-3.43,-3.4342,-3.4353,-3.4415,-3.4345,-3.4406,-3.4409,-3.4399,-3.4539,-3.4561,-3.4667,-3.4493,-3.4496,-3.4497,0,-3.4026,-3.4068,-3.4175,-3.4209,-3.423,-3.4279,-3.4324,-3.4367,-3.44,-3.4404,-3.4434,-3.4423,-3.4484,-3.4434,-3.4519,-3.4471,-3.4496,-3.4506,-3.451,-3.4515,-3.4458,-3.4548,-3.47,-3.4716,-3.452,-3.4519,-3.4517,0,-3.4117,-3.42,-3.4275,-3.4295,-3.4335,-3.437,-3.4388,-3.4419,-3.4449,-3.4488,-3.4507,-3.4552,-3.4577,-3.4612,-3.4612,-3.4575,-3.4698,-3.4647,-3.4702,-3.4702,-3.4728,-3.4726,-3.4887,-3.4745,-3.4745,-3.4744,-3.4744,0,-3.424,-3.4306,-3.4316,-3.4362,-3.4436,-3.4435,-3.4507,-3.4522,-3.4549,-3.4596,-3.4579,-3.4624,-3.4622,-3.4667,-3.4668,-3.4738,-3.4749,-3.4753,-3.4752,-3.4754,-3.4754,-3.477,-3.4763,-3.4748,-3.4748,-3.4747,-3.4746,0,-3.4353,-3.4363,-3.4443,-3.4476,-3.4486,-3.4538,-3.4565,-3.4609,-3.4617,-3.4678,-3.4692,-3.4705,-3.4757,-3.4762,-3.4821,-3.4822,-3.4907,-3.4898,-3.4896,-3.4895,-3.4949,-3.4944,-3.5125,-3.5149,-3.4992,-3.4993,-3.4994,0,-3.4431,-3.4482,-3.4521,-3.4552,-3.4573,-3.4624,-3.4655,-3.4656,-3.4688,-3.473,-3.4768,-3.4819,-3.486,-3.4945,-3.4958,-3.5004,-3.4996,-3.5057,-3.5003,-3.5004,-3.4997,-3.4994,-3.4999,-3.5067,-3.5068,-3.507,-3.5071,0,-3.4568,-3.457,-3.4617,-3.4666,-3.4704,-3.4742,-3.4777,-3.4803,-3.4808,-3.4845,-3.49,-3.4932,-3.4994,-3.5044,-3.509,-3.5106,-3.5089,-3.5088,-3.5103,-3.5106,-3.5103,-3.5105,-3.4925,-3.5084,-3.5082,-3.5082,-3.5081,-3.508,-3.4665,-3.471,-3.4745,-3.4797,-3.4824,-3.4858,-3.4901,-3.4916,-3.4962,-3.5014,-3.5011,-3.5071,-3.5102,-3.5161,-3.5182,-3.5228,-3.5207,-3.5229,-3.5234,-3.524,-3.5246,-3.5096,-3.5236,-3.5235,-3.5235,-3.5235,-3.5235,0,-3.4801,-3.4823,-3.4871,-3.4923,-3.4964,-3.4947,-3.4985,-3.502,-3.5074,-3.5106,-3.5147,-3.5209,-3.5258,-3.5277,-3.5325,-3.5358,-3.5351,-3.537,-3.5368,-3.5372,-3.5261,-3.5243,-3.5375,-3.5375,-3.5375,-3.5375,-3.5375,-3.5375,-3.4877,-3.4952,-3.4959,-3.5046,-3.5067,-3.5127,-3.5151,-3.5181,-3.5207,-3.5278,-3.532,-3.5332,-3.5358,-3.5408,-3.5452,-3.5456,-3.5474,-3.5497,-3.5497,-3.5394,-3.538,-3.5366,-3.5349,-3.5501,-3.5501,-3.5604,-3.5605,-3.5606]}]]